Regional Weather Roundup
Issued by NWS

Home | Current Version | Previous Version | Graphics & Text | Print | Product List | Glossary On
Versions: 1 2 3 4 5 6 7 8 9 10 11 12 13 14 15 16 17 18 19 20 21 22 23 24 25 26 27 28 29 30 31 32 33 34 35 36 37 38 39 40 41 42 43 44 45 46 47 48 49 50
112
ASUS43 KOAX 062002
RWRNE

WEATHER ROUNDUP FOR NEBRASKA
NATIONAL WEATHER SERVICE OMAHA NE
200 PM CST TUE DEC 06 2016

NOTES: SATELLITE DATA IS BEING USED TO AUGMENT CLOUD COVER ABOVE
       12000 FEET.
       "FAIR" INDICATES FEW OR NO CLOUDS BELOW 12,000 FEET WITH NO
       SIGNIFICANT WEATHER AND/OR OBSTRUCTIONS TO VISIBILITY.

  * THESE STATIONS DO NOT REPORT WEATHER SUCH AS RAIN...SNOW OR FOG.

NEZ001>004-019>022-054>056-062100-
NEBRASKA PANHANDLE

CITY           SKY/WX    TMP DP  RH WIND       PRES   REMARKS
SCOTTSBLUFF    MOSUNNY   29   2  31 NW7       29.94F WCI  22
ALLIANCE       SUNNY     28   2  32 NW14      29.92F WCI  17
CHADRON        SUNNY     22   6  50 NW17      30.00S WCI   8
KIMBALL        MOSUNNY   26  -1  31 N8        29.89F WCI  17
SIDNEY         SUNNY     28  -3  26 NE7       29.93F WCI  21
$$

NEZ057>060-069>072-079>082-062100-
SOUTHWEST NEBRASKA

CITY           SKY/WX    TMP DP  RH WIND       PRES   REMARKS
NORTH PLATTE   SUNNY     34   5  29 NW9G18    30.00S WCI  27
IMPERIAL       SUNNY     32  -1  24 NW8G17    29.99F WCI  25
LEXINGTON      SUNNY     35   6  29 NW16      30.01S WCI  26
MCCOOK         SUNNY     34   6  31 NW10      30.03F WCI  26
OGALLALA       SUNNY     32   5  31 W5        29.99F WCI  27
$$

NEZ005>010-023>029-035>040-094-062100-
NORTH CENTRAL NEBRASKA

CITY           SKY/WX    TMP DP  RH WIND       PRES   REMARKS
VALENTINE      SUNNY     23   3  42 W16G28    29.98F WCI  10
AINSWORTH      SUNNY     26   5  41 NW23      29.97S WCI  11
BROKEN BOW     SUNNY     31   6  35 NW16      29.98F WCI  20
O`NEILL        SUNNY     28   6  39 NW18G39   29.97F WCI  15
ORD            SUNNY     31   3  30 NW18G29   29.98F WCI  19
$$

NEZ041-046>049-061>064-073>077-083>087-062100-
SOUTH CENTRAL NEBRASKA

CITY           SKY/WX    TMP DP  RH WIND       PRES   REMARKS
GRAND ISLAND   SUNNY     34   8  33 NW15G31   30.01F WCI  24
AURORA         SUNNY     33   8  34 NW20      30.01F WCI  21
HASTINGS       SUNNY     34   7  32 NW14      30.03S WCI  25
HEBRON         SUNNY     36   8  31 NW13      30.04F WCI  28
HOLDREGE       SUNNY     33   6  31 NW15      30.01F WCI  23
KEARNEY *      SUNNY     34   7  32 NW14G21   30.02R WCI  24
YORK           SUNNY     32   9  37 NW20G26   30.00F WCI  20
$$

NEZ011>018-030>034-042>045-062100-
NORTHEAST NEBRASKA

CITY           SKY/WX    TMP DP  RH WIND       PRES   REMARKS
NORFOLK        SUNNY     30   7  37 W24G33    29.95F WCI  16
ALBION         SUNNY     32   4  30 NW18G29   29.97F WCI  20
BLAIR          SUNNY     32  13  44 NW18G26   29.96F WCI  21
FREMONT        SUNNY     32  12  43 W23       29.99F WCI  19
TEKAMAH        SUNNY     31  14  49 W18G28    29.98S WCI  19
WAYNE          SUNNY     31  10  41 W23G31    29.95F WCI  18
$$

NEZ050>053-065>068-078-088>093-062100-
SOUTHEAST NEBRASKA

CITY           SKY/WX    TMP DP  RH WIND       PRES   REMARKS
LINCOLN        SUNNY     36   8  31 NW21G30   30.03S WCI  25
OMAHA EPPLEY   SUNNY     35  13  40 NW20G25   29.98F WCI  24
BEATRICE       SUNNY     37  12  35 NW18      30.02F WCI  27
FALLS CITY     SUNNY     37  12  35 NW14      30.03F WCI  28
NEBRASKA CITY  SUNNY     35   5  28 NW20G25   30.01S WCI  24
$$

NEZ044-045-051>053-067-062100-
OMAHA AREA

CITY           SKY/WX    TMP DP  RH WIND       PRES   REMARKS
OMAHA EPPLEY   SUNNY     35  13  40 NW20G25   29.98F WCI  24
BLAIR          SUNNY     32  13  44 NW18G26   29.96F WCI  21
FREMONT        SUNNY     32  12  43 W23       29.99F WCI  19
MILLARD        SUNNY     34  12  39 W13G24    29.99R WCI  25
WAHOO          FAIR      33   9  36 NW21G30   29.98F WCI  21
$$




USA.gov is the U.S. government's official web portal to all federal, state and local government web resources and services.